Time,TemperatureF,DewpointF,PressureIn,WindDirection,WindDirectionDegrees,WindSpeedMPH,WindSpeedGustMPH,Humidity,HourlyPrecipIn,Conditions,Clouds,dailyrainin,SoftwareType,DateUTC
2013-03-18 00:03:00,68.0,-99.9,30.02,SE,139,7.0,9.0,-999,-99.99,,,-99.99,,2013-03-18 04:03:00,
2013-03-18 00:13:00,68.0,-99.9,30.01,SE,140,7.0,9.0,-999,-99.99,,,-99.99,,2013-03-18 04:13:00,
2013-03-18 00:23:00,68.0,-99.9,30.01,SE,144,7.0,9.0,-999,-99.99,,,-99.99,,2013-03-18 04:23:00,
2013-03-18 00:33:00,68.0,-99.9,30.01,SSE,151,9.0,11.0,-999,-99.99,,,-99.99,,2013-03-18 04:33:00,
2013-03-18 00:43:00,68.0,-99.9,30.01,SSE,157,8.0,11.0,-999,-99.99,,,-99.99,,2013-03-18 04:43:00,
2013-03-18 00:53:00,68.0,-99.9,30.01,SSE,147,6.0,9.0,-999,-99.99,,,-99.99,,2013-03-18 04:53:00,
2013-03-18 01:03:00,67.0,-99.9,30.01,ESE,123,5.0,7.0,-999,-99.99,,,-99.99,,2013-03-18 05:03:00,
2013-03-18 01:12:00,67.0,-99.9,30.01,ESE,120,4.0,7.0,-999,-99.99,,,-99.99,,2013-03-18 05:12:00,
2013-03-18 01:23:00,67.0,-99.9,30.02,SE,130,6.0,7.0,-999,-99.99,,,-99.99,,2013-03-18 05:23:00,
2013-03-18 01:33:00,67.0,-99.9,30.01,ESE,123,5.0,9.0,-999,-99.99,,,-99.99,,2013-03-18 05:33:00,
2013-03-18 01:43:00,67.0,-99.9,30.01,ESE,109,4.0,8.0,-999,-99.99,,,-99.99,,2013-03-18 05:43:00,
2013-03-18 01:52:00,67.0,-99.9,30.01,East,91,5.0,6.0,-999,-99.99,,,-99.99,,2013-03-18 05:52:00,
2013-03-18 02:02:00,67.0,-99.9,30.01,ENE,68,3.0,5.0,-999,-99.99,,,-99.99,,2013-03-18 06:02:00,
2013-03-18 02:12:00,67.0,-99.9,30.00,East,79,6.0,8.0,-999,-99.99,,,-99.99,,2013-03-18 06:12:00,
2013-03-18 02:22:00,67.0,-99.9,30.00,East,95,4.0,6.0,-999,-99.99,,,-99.99,,2013-03-18 06:22:00,
2013-03-18 02:32:00,66.0,-99.9,30.01,NE,55,3.0,5.0,-999,-99.99,,,-99.99,,2013-03-18 06:32:00,
2013-03-18 02:42:00,66.0,-99.9,30.01,ENE,59,3.0,5.0,-999,-99.99,,,-99.99,,2013-03-18 06:42:00,
2013-03-18 02:53:00,66.0,-99.9,30.01,ENE,65,4.0,5.0,-999,-99.99,,,-99.99,,2013-03-18 06:53:00,
2013-03-18 03:02:00,66.0,-99.9,30.01,ENE,62,4.0,6.0,-999,-99.99,,,-99.99,,2013-03-18 07:02:00,
2013-03-18 03:13:00,66.0,-99.9,30.01,ENE,78,5.0,7.0,-999,-99.99,,,-99.99,,2013-03-18 07:13:00,
2013-03-18 03:23:00,65.0,-99.9,30.01,East,88,5.0,6.0,-999,-99.99,,,-99.99,,2013-03-18 07:23:00,
2013-03-18 03:33:00,65.0,-99.9,30.01,ESE,119,5.0,6.0,-999,-99.99,,,-99.99,,2013-03-18 07:33:00,
2013-03-18 03:43:00,65.0,-99.9,30.01,ESE,118,4.0,5.0,-999,-99.99,,,-99.99,,2013-03-18 07:43:00,
2013-03-18 03:53:00,65.0,-99.9,30.01,ESE,121,4.0,5.0,-999,-99.99,,,-99.99,,2013-03-18 07:53:00,
2013-03-18 04:02:00,65.0,-99.9,30.01,SE,127,4.0,5.0,-999,-99.99,,,-99.99,,2013-03-18 08:02:00,
2013-03-18 04:12:00,65.0,-99.9,30.01,SE,132,4.0,6.0,-999,-99.99,,,-99.99,,2013-03-18 08:12:00,
2013-03-18 04:22:00,64.0,-99.9,30.00,ESE,119,4.0,6.0,-999,-99.99,,,-99.99,,2013-03-18 08:22:00,
2013-03-18 04:32:00,65.0,-99.9,30.00,SE,143,5.0,6.0,-999,-99.99,,,-99.99,,2013-03-18 08:32:00,
2013-03-18 04:43:00,65.0,-99.9,30.00,SE,137,6.0,8.0,-999,-99.99,,,-99.99,,2013-03-18 08:43:00,
2013-03-18 04:53:00,65.0,-99.9,29.99,SE,144,5.0,8.0,-999,-99.99,,,-99.99,,2013-03-18 08:53:00,
2013-03-18 05:02:00,65.0,-99.9,29.99,SSE,148,6.0,9.0,-999,-99.99,,,-99.99,,2013-03-18 09:02:00,
2013-03-18 05:13:00,65.0,-99.9,29.99,SE,144,6.0,9.0,-999,-99.99,,,-99.99,,2013-03-18 09:13:00,
2013-03-18 05:22:00,65.0,-99.9,29.99,SSE,153,6.0,9.0,-999,-99.99,,,-99.99,,2013-03-18 09:22:00,
2013-03-18 05:33:00,65.0,-99.9,29.99,SSE,148,5.0,8.0,-999,-99.99,,,-99.99,,2013-03-18 09:33:00,
2013-03-18 05:43:00,65.0,-99.9,30.00,SSE,155,7.0,9.0,-999,-99.99,,,-99.99,,2013-03-18 09:43:00,
2013-03-18 05:53:00,64.0,-99.9,29.99,SE,146,4.0,6.0,-999,-99.99,,,-99.99,,2013-03-18 09:53:00,
2013-03-18 06:04:00,64.0,-99.9,30.00,SSE,151,6.0,9.0,-999,-99.99,,,-99.99,,2013-03-18 10:04:00,
2013-03-18 06:13:00,64.0,-99.9,30.00,SE,140,4.0,8.0,-999,-99.99,,,-99.99,,2013-03-18 10:13:00,
2013-03-18 06:23:00,64.0,-99.9,30.00,SE,135,5.0,6.0,-999,-99.99,,,-99.99,,2013-03-18 10:23:00,
2013-03-18 06:33:00,64.0,-99.9,30.00,SE,124,6.0,9.0,-999,-99.99,,,-99.99,,2013-03-18 10:33:00,
2013-03-18 06:42:00,64.0,-99.9,30.01,SE,128,6.0,8.0,-999,-99.99,,,-99.99,,2013-03-18 10:42:00,
2013-03-18 06:53:00,64.0,-99.9,30.01,ESE,121,6.0,8.0,-999,-99.99,,,-99.99,,2013-03-18 10:53:00,
2013-03-18 07:03:00,64.0,-99.9,30.01,SE,132,6.0,7.0,-999,-99.99,,,-99.99,,2013-03-18 11:03:00,
2013-03-18 07:13:00,64.0,-99.9,30.01,ESE,121,5.0,7.0,-999,-99.99,,,-99.99,,2013-03-18 11:13:00,
2013-03-18 07:22:00,64.0,-99.9,30.01,SE,145,7.0,9.0,-999,-99.99,,,-99.99,,2013-03-18 11:22:00,
2013-03-18 07:32:00,64.0,-99.9,30.01,SE,138,6.0,9.0,-999,-99.99,,,-99.99,,2013-03-18 11:32:00,
2013-03-18 07:43:00,64.0,-99.9,30.02,SE,134,6.0,8.0,-999,-99.99,,,-99.99,,2013-03-18 11:43:00,
2013-03-18 07:53:00,64.0,-99.9,30.02,SE,138,7.0,10.0,-999,-99.99,,,-99.99,,2013-03-18 11:53:00,
2013-03-18 08:03:00,65.0,-99.9,30.01,SSE,153,8.0,11.0,-999,-99.99,,,-99.99,,2013-03-18 12:03:00,
2013-03-18 08:13:00,65.0,-99.9,30.01,SE,146,8.0,12.0,-999,-99.99,,,-99.99,,2013-03-18 12:13:00,
2013-03-18 08:22:00,65.0,-99.9,30.00,SE,141,8.0,11.0,-999,-99.99,,,-99.99,,2013-03-18 12:22:00,
2013-03-18 08:33:00,65.0,-99.9,30.00,SSE,153,9.0,15.0,-999,-99.99,,,-99.99,,2013-03-18 12:33:00,
2013-03-18 08:43:00,65.0,-99.9,30.00,SSE,155,10.0,13.0,-999,-99.99,,,-99.99,,2013-03-18 12:43:00,
2013-03-18 08:52:00,65.0,-99.9,29.99,SSE,153,10.0,15.0,-999,-99.99,,,-99.99,,2013-03-18 12:52:00,
2013-03-18 09:03:00,65.0,-99.9,30.00,SSE,163,12.0,16.0,-999,-99.99,,,-99.99,,2013-03-18 13:03:00,
2013-03-18 09:12:00,65.0,-99.9,30.00,SSE,163,13.0,17.0,-999,-99.99,,,-99.99,,2013-03-18 13:12:00,
2013-03-18 09:23:00,66.0,-99.9,29.99,South,169,13.0,19.0,-999,-99.99,,,-99.99,,2013-03-18 13:23:00,
2013-03-18 09:33:00,66.0,-99.9,29.99,South,170,11.0,18.0,-999,-99.99,,,-99.99,,2013-03-18 13:33:00,
2013-03-18 09:43:00,67.0,-99.9,30.00,South,171,11.0,15.0,-999,-99.99,,,-99.99,,2013-03-18 13:43:00,
2013-03-18 09:52:00,68.0,-99.9,30.00,South,179,14.0,17.0,-999,-99.99,,,-99.99,,2013-03-18 13:52:00,
2013-03-18 10:03:00,69.0,-99.9,29.99,South,183,18.0,24.0,-999,-99.99,,,-99.99,,2013-03-18 14:03:00,
2013-03-18 10:22:00,69.0,-99.9,30.01,South,169,10.0,17.0,-999,-99.99,,,-99.99,,2013-03-18 14:22:00,
2013-03-18 10:32:00,70.0,-99.9,30.01,South,177,10.0,17.0,-999,-99.99,,,-99.99,,2013-03-18 14:32:00,
2013-03-18 10:42:00,70.0,-99.9,30.01,South,170,11.0,14.0,-999,-99.99,,,-99.99,,2013-03-18 14:42:00,
2013-03-18 10:52:00,70.0,-99.9,30.02,South,181,8.0,12.0,-999,-99.99,,,-99.99,,2013-03-18 14:52:00,
2013-03-18 11:02:00,70.0,-99.9,30.03,SSE,166,10.0,14.0,-999,-99.99,,,-99.99,,2013-03-18 15:02:00,
2013-03-18 11:12:00,70.0,-99.9,30.02,South,172,9.0,13.0,-999,-99.99,,,-99.99,,2013-03-18 15:12:00,
2013-03-18 11:23:00,71.0,-99.9,30.02,South,171,8.0,11.0,-999,-99.99,,,-99.99,,2013-03-18 15:23:00,
2013-03-18 11:33:00,71.0,-99.9,30.03,SSE,168,11.0,15.0,-999,-99.99,,,-99.99,,2013-03-18 15:33:00,
2013-03-18 11:43:00,71.0,-99.9,30.02,SSE,158,10.0,15.0,-999,-99.99,,,-99.99,,2013-03-18 15:43:00,
2013-03-18 11:52:00,71.0,-99.9,30.02,SSE,165,9.0,13.0,-999,-99.99,,,-99.99,,2013-03-18 15:52:00,
2013-03-18 12:03:00,71.0,-99.9,30.02,South,178,12.0,17.0,-999,-99.99,,,-99.99,,2013-03-18 16:03:00,
2013-03-18 12:12:00,71.0,-99.9,30.01,South,173,12.0,19.0,-999,-99.99,,,-99.99,,2013-03-18 16:12:00,
2013-03-18 12:23:00,71.0,-99.9,30.01,South,173,9.0,16.0,-999,-99.99,,,-99.99,,2013-03-18 16:23:00,
2013-03-18 12:33:00,71.0,-99.9,30.02,South,175,11.0,13.0,-999,-99.99,,,-99.99,,2013-03-18 16:33:00,
2013-03-18 12:42:00,71.0,-99.9,30.01,South,181,9.0,14.0,-999,-99.99,,,-99.99,,2013-03-18 16:42:00,
2013-03-18 12:53:00,72.0,-99.9,30.03,South,181,11.0,14.0,-999,-99.99,,,-99.99,,2013-03-18 16:53:00,
2013-03-18 13:03:00,72.0,-99.9,30.04,South,181,12.0,16.0,-999,-99.99,,,-99.99,,2013-03-18 17:03:00,
2013-03-18 13:12:00,72.0,-99.9,30.03,South,181,12.0,17.0,-999,-99.99,,,-99.99,,2013-03-18 17:12:00,
2013-03-18 13:22:00,72.0,-99.9,30.03,South,186,14.0,19.0,-999,-99.99,,,-99.99,,2013-03-18 17:22:00,
2013-03-18 13:33:00,72.0,-99.9,30.03,South,189,13.0,19.0,-999,-99.99,,,-99.99,,2013-03-18 17:33:00,
2013-03-18 13:43:00,72.0,-99.9,30.02,South,181,13.0,21.0,-999,-99.99,,,-99.99,,2013-03-18 17:43:00,
2013-03-18 13:52:00,71.0,-99.9,30.01,South,180,12.0,18.0,-999,-99.99,,,-99.99,,2013-03-18 17:52:00,
2013-03-18 14:02:00,71.0,-99.9,30.00,South,173,14.0,17.0,-999,-99.99,,,-99.99,,2013-03-18 18:02:00,
2013-03-18 14:13:00,72.0,-99.9,30.00,South,186,16.0,20.0,-999,-99.99,,,-99.99,,2013-03-18 18:13:00,
2013-03-18 14:22:00,71.0,-99.9,30.01,South,185,11.0,14.0,-999,-99.99,,,-99.99,,2013-03-18 18:22:00,
2013-03-18 14:32:00,71.0,-99.9,30.01,South,183,13.0,17.0,-999,-99.99,,,-99.99,,2013-03-18 18:32:00,
2013-03-18 14:42:00,72.0,-99.9,29.99,South,178,17.0,20.0,-999,-99.99,,,-99.99,,2013-03-18 18:42:00,
2013-03-18 14:52:00,72.0,-99.9,29.97,SSE,168,15.0,20.0,-999,-99.99,,,-99.99,,2013-03-18 18:52:00,
2013-03-18 15:03:00,71.0,-99.9,29.97,South,183,12.0,18.0,-999,-99.99,,,-99.99,,2013-03-18 19:03:00,
2013-03-18 15:12:00,71.0,-99.9,29.96,South,182,17.0,20.0,-999,-99.99,,,-99.99,,2013-03-18 19:12:00,
2013-03-18 15:22:00,71.0,-99.9,29.96,South,185,10.0,18.0,-999,-99.99,,,-99.99,,2013-03-18 19:22:00,
2013-03-18 15:33:00,71.0,-99.9,29.96,South,191,12.0,15.0,-999,-99.99,,,-99.99,,2013-03-18 19:33:00,
2013-03-18 15:42:00,71.0,-99.9,29.96,South,189,12.0,22.0,-999,-99.99,,,-99.99,,2013-03-18 19:42:00,
2013-03-18 15:52:00,71.0,-99.9,29.94,South,176,16.0,19.0,-999,-99.99,,,-99.99,,2013-03-18 19:52:00,
2013-03-18 16:03:00,71.0,-99.9,29.93,SSE,164,12.0,19.0,-999,-99.99,,,-99.99,,2013-03-18 20:03:00,
2013-03-18 16:12:00,71.0,-99.9,29.93,South,169,13.0,18.0,-999,-99.99,,,-99.99,,2013-03-18 20:12:00,
2013-03-18 16:23:00,71.0,-99.9,29.93,South,186,17.0,20.0,-999,-99.99,,,-99.99,,2013-03-18 20:23:00,
2013-03-18 16:33:00,71.0,-99.9,29.94,South,183,15.0,21.0,-999,-99.99,,,-99.99,,2013-03-18 20:33:00,
2013-03-18 16:43:00,71.0,-99.9,29.94,South,187,17.0,20.0,-999,-99.99,,,-99.99,,2013-03-18 20:43:00,
2013-03-18 16:53:00,71.0,-99.9,29.94,South,187,13.0,18.0,-999,-99.99,,,-99.99,,2013-03-18 20:53:00,
2013-03-18 17:02:00,71.0,-99.9,29.94,South,186,13.0,15.0,-999,-99.99,,,-99.99,,2013-03-18 21:02:00,
2013-03-18 17:12:00,71.0,-99.9,29.94,South,189,11.0,15.0,-999,-99.99,,,-99.99,,2013-03-18 21:12:00,
2013-03-18 17:23:00,70.0,-99.9,29.94,SSW,198,13.0,16.0,-999,-99.99,,,-99.99,,2013-03-18 21:23:00,
2013-03-18 17:33:00,69.0,-99.9,29.94,SSW,193,14.0,18.0,-999,-99.99,,,-99.99,,2013-03-18 21:33:00,
2013-03-18 17:43:00,69.0,-99.9,29.93,South,187,14.0,18.0,-999,-99.99,,,-99.99,,2013-03-18 21:43:00,
2013-03-18 17:53:00,69.0,-99.9,29.93,SSW,195,14.0,17.0,-999,-99.99,,,-99.99,,2013-03-18 21:53:00,
2013-03-18 18:03:00,69.0,-99.9,29.93,South,190,15.0,18.0,-999,-99.99,,,-99.99,,2013-03-18 22:03:00,
2013-03-18 18:13:00,69.0,-99.9,29.93,South,189,12.0,16.0,-999,-99.99,,,-99.99,,2013-03-18 22:13:00,
2013-03-18 18:23:00,69.0,-99.9,29.93,SSW,192,12.0,15.0,-999,-99.99,,,-99.99,,2013-03-18 22:23:00,
2013-03-18 18:33:00,69.0,-99.9,29.92,SSW,198,9.0,14.0,-999,-99.99,,,-99.99,,2013-03-18 22:33:00,
2013-03-18 18:43:00,69.0,-99.9,29.92,SSW,193,10.0,13.0,-999,-99.99,,,-99.99,,2013-03-18 22:43:00,
2013-03-18 18:53:00,67.0,-99.9,29.92,SW,228,11.0,14.0,-999,-99.99,,,-99.99,,2013-03-18 22:53:00,
2013-03-18 19:03:00,66.0,-99.9,29.93,SW,233,12.0,13.0,-999,-99.99,,,-99.99,,2013-03-18 23:03:00,
2013-03-18 19:13:00,66.0,-99.9,29.94,SW,235,11.0,13.0,-999,-99.99,,,-99.99,,2013-03-18 23:13:00,
2013-03-18 19:23:00,65.0,-99.9,29.94,SW,221,10.0,11.0,-999,-99.99,,,-99.99,,2013-03-18 23:23:00,
2013-03-18 19:33:00,65.0,-99.9,29.94,SW,215,9.0,12.0,-999,-99.99,,,-99.99,,2013-03-18 23:33:00,
2013-03-18 19:43:00,65.0,-99.9,29.95,SW,217,7.0,8.0,-999,-99.99,,,-99.99,,2013-03-18 23:43:00,
2013-03-18 19:53:00,65.0,-99.9,29.96,SW,234,8.0,9.0,-999,-99.99,,,-99.99,,2013-03-18 23:53:00,
2013-03-18 20:03:00,65.0,-99.9,29.96,SW,236,8.0,9.0,-999,-99.99,,,-99.99,,2013-03-19 00:03:00,
2013-03-18 20:12:00,65.0,-99.9,29.96,SW,227,9.0,9.0,-999,-99.99,,,-99.99,,2013-03-19 00:12:00,
2013-03-18 20:23:00,65.0,-99.9,29.96,SSW,199,10.0,11.0,-999,-99.99,,,-99.99,,2013-03-19 00:23:00,
2013-03-18 20:33:00,66.0,-99.9,29.93,SSW,204,15.0,16.0,-999,-99.99,,,-99.99,,2013-03-19 00:33:00,
2013-03-18 20:43:00,66.0,-99.9,29.93,SSW,202,15.0,17.0,-999,-99.99,,,-99.99,,2013-03-19 00:43:00,
2013-03-18 20:52:00,66.0,-99.9,29.93,SSW,206,13.0,16.0,-999,-99.99,,,-99.99,,2013-03-19 00:52:00,
2013-03-18 21:02:00,66.0,-99.9,29.93,SSW,194,16.0,20.0,-999,-99.99,,,-99.99,,2013-03-19 01:02:00,
2013-03-18 21:12:00,66.0,-99.9,29.91,SSW,192,18.0,22.0,-999,-99.99,,,-99.99,,2013-03-19 01:12:00,
2013-03-18 21:23:00,67.0,-99.9,29.88,SSW,194,28.0,32.0,-999,-99.99,,,-99.99,,2013-03-19 01:23:00,
2013-03-18 21:33:00,67.0,-99.9,29.87,SSW,196,20.0,29.0,-999,-99.99,,,-99.99,,2013-03-19 01:33:00,
2013-03-18 21:43:00,67.0,-99.9,29.88,SW,218,16.0,20.0,-999,-99.99,,,-99.99,,2013-03-19 01:43:00,
2013-03-18 21:53:00,67.0,-99.9,29.92,SW,218,13.0,16.0,-999,-99.99,,,-99.99,,2013-03-19 01:53:00,
2013-03-18 22:03:00,67.0,-99.9,29.92,SW,218,13.0,16.0,-999,-99.99,,,-99.99,,2013-03-19 02:03:00,
2013-03-18 22:13:00,68.0,-99.9,29.91,SSW,212,17.0,22.0,-999,-99.99,,,-99.99,,2013-03-19 02:13:00,
2013-03-18 22:23:00,67.0,-99.9,29.93,SSW,203,16.0,19.0,-999,-99.99,,,-99.99,,2013-03-19 02:23:00,
2013-03-18 22:33:00,67.0,-99.9,29.94,South,191,13.0,18.0,-999,-99.99,,,-99.99,,2013-03-19 02:33:00,
2013-03-18 22:43:00,67.0,-99.9,29.94,South,180,11.0,14.0,-999,-99.99,,,-99.99,,2013-03-19 02:43:00,
2013-03-18 22:53:00,67.0,-99.9,29.94,SSE,157,8.0,11.0,-999,-99.99,,,-99.99,,2013-03-19 02:53:00,
2013-03-18 23:02:00,67.0,-99.9,29.93,SSE,160,7.0,12.0,-999,-99.99,,,-99.99,,2013-03-19 03:02:00,
2013-03-18 23:13:00,67.0,-99.9,29.91,SSE,164,12.0,16.0,-999,-99.99,,,-99.99,,2013-03-19 03:13:00,
2013-03-18 23:23:00,67.0,-99.9,29.90,SSE,167,13.0,16.0,-999,-99.99,,,-99.99,,2013-03-19 03:23:00,
2013-03-18 23:33:00,67.0,-99.9,29.91,South,191,11.0,14.0,-999,-99.99,,,-99.99,,2013-03-19 03:33:00,
2013-03-18 23:43:00,68.0,-99.9,29.91,South,190,15.0,19.0,-999,-99.99,,,-99.99,,2013-03-19 03:43:00,
2013-03-18 23:54:00,68.0,-99.9,29.91,SSW,195,15.0,19.0,-999,-99.99,,,-99.99,,2013-03-19 03:54:00,